Lafayette, IN

7:33 PM EDT on June 25, 2017 (GMT -0400)
Purdue Univ

Weather History for KLAF - March, 2013

Change the Weather History Date:

Friday, March 29, 2013

  Actual Average Record
Temperature  
Mean Temperature 40 °F 46 °F  
Max Temperature 54 °F 56 °F 82 °F (1986)
Min Temperature 26 °F 36 °F 17 °F (1964)
Degree Days  
Heating Degree Days 25 19  
Month to date heating degree days 930 714  
Since 1 July heating degree days 5265 5048  
Cooling Degree Days 0 0  
Month to date cooling degree days 0 0  
Year to date cooling degree days 0 0  
Moisture  
Dew Point 28 °F    
Average Humidity 63    
Maximum Humidity 85    
Minimum Humidity 41    
Precipitation  
Precipitation 0.00 in 0.10 in 0.97 in (1988)
Month to date precipitation 1.24 2.46  
Year to date precipitation 7.19 6.08  
Sea Level Pressure  
Sea Level Pressure 30.29 in    
Wind  
Wind Speed 2 mph (NW)    
Max Wind Speed 10 mph    
Max Gust Speed 14 mph    
Visibility 10 miles    
Events      
T = Trace of Precipitation, MM = Missing Value Source: NWS Daily Summary

Daily Weather History Graph

Daily Weather History Graph

Search for Another Location

Airport or City:

Trip Planner

Search our weather history database for the weather conditions in past years. The results will help you decide how hot, cold, wet, or windy it might be!

Date:

Astronomy

Mar. 29, 2013 Rise Set
Actual Time 7:35 AM EDT 8:09 PM EDT
Civil Twilight 7:08 AM EDT 8:36 PM EDT
Nautical Twilight 6:36 AM EDT 9:09 PM EDT
Astronomical Twilight 6:03 AM EDT 9:42 PM EDT
Moon 11:09 PM EDT (3/29) 8:44 AM EDT (3/29)
Length of Visible Light 13h 28m
Length of Day
12h 33m
Waning Gibbous, 93% of the Moon is Illuminated
Mar 29
Waning Gibbous
Apr 3
Last Quarter
Apr 10
New
Apr 18
First Quarter
Apr 25
Full

Hourly Weather History & Observations

Time (EDT) Temp. Windchill Dew Point Humidity Pressure Visibility Wind Dir Wind Speed Gust Speed Precip Events Conditions
12:54 AM 34.0 °F - 25.0 °F 70% 30.33 in 10.0 mi Calm Calm - N/A   Overcast
1:54 AM 32.0 °F - 25.0 °F 75% 30.33 in 10.0 mi Calm Calm - N/A   Overcast
2:54 AM 32.0 °F - 25.0 °F 75% 30.33 in 10.0 mi Calm Calm - N/A   Overcast
3:54 AM 30.9 °F - 25.0 °F 79% 30.31 in 10.0 mi Calm Calm - N/A   Overcast
4:54 AM 30.0 °F - 25.0 °F 82% 30.30 in 10.0 mi Calm Calm - N/A   Scattered Clouds
5:54 AM 28.0 °F 24.2 °F 24.1 °F 85% 30.31 in 10.0 mi WSW 3.5 mph - N/A   Mostly Cloudy
6:54 AM 28.9 °F - 25.0 °F 85% 30.30 in 10.0 mi Calm Calm - N/A   Overcast
7:54 AM 30.9 °F - 26.1 °F 82% 30.32 in 10.0 mi Calm Calm - N/A   Overcast
8:54 AM 32.0 °F - 28.9 °F 88% 30.33 in 9.0 mi Calm Calm - N/A   Overcast
9:54 AM 36.0 °F - 28.0 °F 73% 30.34 in 10.0 mi Calm Calm - N/A   Overcast
10:54 AM 39.9 °F - 28.0 °F 63% 30.34 in 10.0 mi Calm Calm - N/A   Overcast
11:54 AM 45.0 °F - 28.0 °F 52% 30.34 in 10.0 mi Calm Calm - N/A   Clear
12:54 PM 48.9 °F - 30.9 °F 50% 30.32 in 10.0 mi Calm Calm - N/A   Clear
1:54 PM 50.0 °F - 30.0 °F 46% 30.30 in 10.0 mi WSW 5.8 mph - N/A   Clear
2:54 PM 51.1 °F - 28.9 °F 43% 30.28 in 10.0 mi Variable 3.5 mph - N/A   Partly Cloudy
3:54 PM 51.1 °F - 28.9 °F 43% 30.26 in 10.0 mi North 3.5 mph - N/A   Scattered Clouds
4:54 PM 53.1 °F - 30.0 °F 41% 30.24 in 10.0 mi WNW 6.9 mph - N/A   Partly Cloudy
5:54 PM 52.0 °F - 30.9 °F 45% 30.23 in 10.0 mi NNW 8.1 mph - N/A   Overcast
6:54 PM 51.1 °F - 28.9 °F 43% 30.23 in 10.0 mi North 9.2 mph - N/A   Scattered Clouds
7:54 PM 48.0 °F - 28.0 °F 46% 30.24 in 10.0 mi North 4.6 mph - N/A   Partly Cloudy
8:54 PM 43.0 °F - 28.9 °F 58% 30.24 in 10.0 mi Calm Calm - N/A   Clear
9:54 PM 39.0 °F - 30.0 °F 70% 30.25 in 10.0 mi Calm Calm - N/A   Clear
10:54 PM 37.0 °F - 28.0 °F 70% 30.26 in 10.0 mi Calm Calm - N/A   Clear
11:54 PM 37.0 °F - 28.9 °F 73% 30.25 in 10.0 mi Calm Calm - N/A   Clear